Location: *
(29.1167°S, 130.0000°E)
Time: 10:59:27
(UTC+00:00)

Cosmos 2233 Rocket - Pass Details

Date: 21 July 2019
Orbit: 953 x 991 km, 82.9° (Epoch: 21 August)

Event Time Altitude Azimuth Distance (km) Brightness Sun altitude
Rises 09:34:22 0° 174° (S) 3,675 6.8 -11.5°
Reaches altitude 10° 09:37:08 10° 165° (SSE) 2,727 6.0 -12.0°
Maximum altitude 09:42:48 36° 100° (E) 1,512 4.5 -13.2°
Drops below altitude 10° 09:48:27 10° 35° (NE) 2,724 6.1 -14.4°
Sets 09:51:10 0° 26° (NNE) 3,669 6.9 -15.0°
